QPF
0.00 0.00 0.00 0.00 0.00 0.00 0.00 0.00 0.00 0.00 0.00 0.00 0.00 0.00 0.00 0.00 0.00 0.00 0.00 0.00 0.00 0.00 0.00 0.00 0.00 0.00 0.00 0.00 0.00 0.00 0.00 0.00 0.00 0.00 0.00 0.00 0.00 0.00 0.00 0.00 0.00 0.00 0.00 0.00
0.00 0.00 0.00 0.00 0.00 0.00 0.00 0.00 0.00 0.00 0.00 0.00 0.00 0.00 0.00 0.00 0.00 0.00 0.00 0.00 0.00 0.00 0.00 0.00 0.00 0.00 0.00 0.00 0.00 0.00 0.00 0.00 0.00 0.00 0.00 0.00 0.00 0.00 0.00 0.00 0.00 0.00 0.00 0.00
0.00 0.00 0.00 0.00 0.00 0.00 0.00 0.00 0.00 0.00 0.00 0.00 0.00 0.00 0.00 0.00 0.00 0.00 0.00 0.00 0.00 0.00 0.00 0.00 0.00 0.00 0.00 0.00 0.00 0.00 0.00 0.00 0.00 0.00 0.00 0.00 0.00 0.00 0.00 0.00 0.00 0.00 0.00 0.00
0.00 0.00 0.00 0.00 0.00 0.00 0.00 0.00 0.00 0.00 0.00 0.00 0.00 0.00 0.00 0.00 0.00 0.00 0.00 0.00 0.00 0.00 0.00 0.00 0.00 0.00 0.00 0.00 0.00 0.00 0.00 0.00 0.00 0.00 0.00 0.00 0.00 0.00 0.00 0.00 0.00 0.00 0.00 0.00
0.00 0.00 0.00 0.00 0.00 0.00 0.00 0.00 0.00 0.00 0.00 0.00 0.00 0.00 0.00 0.00 0.00 0.00 0.00 0.00 0.00 0.00 0.00 0.00 0.00 0.00 0.00 0.00 0.00 0.00 0.00 0.00 0.00 0.00 0.00 0.00 0.00 0.00 0.00 0.00 0.00 0.00 0.00 0.00
0.00 0.00 0.00 0.00 0.00 0.00 0.00 0.00 0.00 0.00 0.00 0.00 0.00 0.00 0.00 0.00 0.00 0.00 0.00 0.00 0.00 0.00 0.00 0.00 0.00 0.00 0.00 0.00 0.00 0.00 0.00 0.00 0.00 0.00 0.00 0.00 0.00 0.00 0.00 0.00 0.00 0.00 0.00 0.00
0.00 0.00 0.00 0.00 0.00 0.00 0.00 0.00 0.00 0.00 0.00 0.00 0.00 0.00 0.00 0.00 0.00 0.00 0.00 0.00 0.00 0.00 0.00 0.00 0.00 0.00 0.00 0.00 0.00 0.00 0.00 0.00 0.00 0.00 0.00 0.00 0.00 0.00 0.00 0.00 0.00 0.00 0.00 0.01
0.00 0.00 0.00 0.00 0.00 0.00 0.00 0.00 0.00 0.00 0.00 0.00 0.00 0.00 0.00 0.00 0.00 0.00 0.00 0.00 0.00 0.00 0.00 0.00 0.00 0.00 0.00 0.00 0.00 0.00 0.00 0.00 0.00 0.00 0.00 0.00 0.00 0.00 0.00 0.01 0.01 0.01 0.01 0.01
0.00 0.00 0.00 0.00 0.00 0.00 0.00 0.00 0.00 0.00 0.00 0.00 0.00 0.00 0.00 0.00 0.00 0.00 0.00 0.00 0.00 0.00 0.00 0.00 0.00 0.00 0.00 0.00 0.00 0.00 0.00 0.00 0.00 0.00 0.00 0.00 0.00 0.00 0.00 0.01 0.01 0.02 0.02 0.02
0.00 0.00 0.00 0.00 0.00 0.00 0.00 0.00 0.00 0.00 0.00 0.00 0.00 0.00 0.00 0.00 0.00 0.00 0.00 0.00 0.00 0.00 0.00 0.00 0.00 0.00 0.00 0.00 0.00 0.00 0.00 0.00 0.00 0.00 0.00 0.00 0.00 0.00 0.01 0.01 0.04 0.05 0.03 0.03
0.00 0.00 0.00 0.00 0.00 0.00 0.00 0.00 0.00 0.00 0.00 0.00 0.00 0.00 0.00 0.00 0.00 0.00 0.00 0.00 0.00 0.00 0.00 0.00 0.00 0.00 0.00 0.00 0.00 0.00 0.00 0.00 0.00 0.00 0.00 0.00 0.00 0.00 0.01 0.01 0.05 0.05 0.05 0.05
0.00 0.00 0.00 0.00 0.00 0.00 0.00 0.00 0.00 0.00 0.00 0.00 0.00 0.00 0.00 0.00 0.00 0.00 0.00 0.00 0.00 0.00 0.00 0.00 0.00 0.00 0.00 0.00 0.00 0.00 0.00 0.00 0.00 0.00 0.00 0.00 0.00 0.00 0.00 0.01 0.02 0.03 0.04 0.05
0.00 0.00 0.00 0.00 0.00 0.00 0.00 0.00 0.00 0.00 0.00 0.00 0.00 0.00 0.00 0.00 0.00 0.00 0.00 0.00 0.00 0.00 0.00 0.00 0.00 0.00 0.00 0.00 0.00 0.00 0.00 0.00 0.00 0.00 0.00 0.00 0.00 0.00 0.00 0.00 0.01 0.01 0.01 0.03
0.00 0.00 0.00 0.00 0.00 0.00 0.00 0.00 0.00 0.00 0.00 0.00 0.00 0.00 0.00 0.00 0.00 0.00 0.00 0.00 0.00 0.00 0.00 0.00 0.00 0.00 0.00 0.00 0.00 0.00 0.00 0.00 0.00 0.00 0.00 0.00 0.00 0.00 0.00 0.00 0.00 0.00 0.00 0.01
0.00 0.00 0.00 0.00 0.00 0.00 0.00 0.00 0.00 0.00 0.00 0.00 0.00 0.00 0.00 0.00 0.00 0.00 0.00 0.00 0.00 0.00 0.00 0.00 0.00 0.00 0.00 0.00 0.00 0.00 0.00 0.00 0.00 0.00 0.00 0.00 0.00 0.00 0.00 0.00 0.00 0.00 0.00 0.00
0.00 0.00 0.00 0.00 0.00 0.00 0.00 0.00 0.00 0.00 0.00 0.00 0.00 0.00 0.00 0.00 0.00 0.00 0.00 0.00 0.00 0.00 0.00 0.00 0.00 0.00 0.00 0.00 0.00 0.00 0.00 0.00 0.00 0.00 0.00 0.00 0.00 0.00 0.00 0.00 0.00 0.00 0.00 0.01
0.00 0.00 0.00 0.00 0.00 0.00 0.00 0.00 0.00 0.00 0.00 0.00 0.00 0.00 0.00 0.00 0.00 0.00 0.00 0.00 0.00 0.00 0.00 0.00 0.00 0.00 0.00 0.00 0.00 0.00 0.00 0.00 0.00 0.00 0.00 0.00 0.00 0.00 0.00 0.00 0.00 0.00 0.00 0.00
0.00 0.00 0.00 0.00 0.00 0.00 0.00 0.00 0.00 0.00 0.00 0.00 0.00 0.00 0.00 0.00 0.00 0.00 0.00 0.00 0.00 0.00 0.00 0.00 0.00 0.00 0.00 0.00 0.00 0.00 0.00 0.00 0.00 0.00 0.00 0.00 0.00 0.00 0.00 0.00 0.00 0.00 0.00 0.00
0.00 0.00 0.00 0.00 0.00 0.00 0.00 0.00 0.00 0.00 0.00 0.00 0.00 0.00 0.00 0.00 0.00 0.00 0.00 0.00 0.00 0.00 0.00 0.00 0.00 0.00 0.00 0.00 0.00 0.00 0.00 0.00 0.00 0.00 0.00 0.00 0.00 0.00 0.00 0.01 0.01 0.01 0.01 0.01
0.00 0.00 0.00 0.00 0.00 0.00 0.00 0.00 0.00 0.00 0.00 0.00 0.00 0.00 0.00 0.00 0.00 0.00 0.00 0.00 0.00 0.00 0.00 0.00 0.00 0.00 0.00 0.00 0.00 0.00 0.00 0.00 0.00 0.00 0.00 0.00 0.00 0.01 0.01 0.01 0.01 0.02 0.02 0.01
0.00 0.00 0.00 0.00 0.00 0.00 0.00 0.00 0.00 0.00 0.00 0.00 0.00 0.00 0.00 0.00 0.00 0.00 0.00 0.00 0.00 0.00 0.00 0.00 0.00 0.00 0.00 0.00 0.00 0.00 0.00 0.00 0.00 0.00 0.00 0.00 0.01 0.01 0.01 0.02 0.02 0.03 0.03 0.03
0.00 0.00 0.00 0.00 0.00 0.00 0.00 0.00 0.00 0.00 0.00 0.00 0.00 0.00 0.00 0.00 0.00 0.00 0.00 0.00 0.00 0.00 0.00 0.00 0.00 0.00 0.00 0.00 0.00 0.00 0.00 0.00 0.00 0.00 0.00 0.01 0.01 0.01 0.02 0.02 0.03 0.04 0.04 0.05
0.00 0.00 0.00 0.00 0.00 0.00 0.00 0.00 0.00 0.00 0.00 0.00 0.00 0.00 0.00 0.00 0.00 0.00 0.00 0.00 0.00 0.00 0.00 0.00 0.00 0.00 0.00 0.00 0.00 0.00 0.00 0.00 0.00 0.00 0.00 0.01 0.01 0.01 0.02 0.02 0.03 0.05 0.06 0.07
0.00 0.00 0.00 0.00 0.00 0.00 0.00 0.00 0.00 0.00 0.00 0.00 0.00 0.00 0.00 0.00 0.00 0.00 0.00 0.00 0.00 0.00 0.00 0.00 0.00 0.00 0.00 0.00 0.00 0.00 0.00 0.00 0.00 0.00 0.00 0.00 0.00 0.01 0.01 0.02 0.04 0.04 0.05 0.07
0.00 0.00 0.00 0.00 0.00 0.00 0.00 0.00 0.00 0.00 0.00 0.00 0.00 0.00 0.00 0.00 0.00 0.00 0.00 0.00 0.00 0.00 0.00 0.00 0.00 0.00 0.00 0.00 0.00 0.00 0.00 0.00 0.00 0.00 0.00 0.00 0.00 0.01 0.01 0.02 0.03 0.04 0.05 0.07
0.00 0.00 0.00 0.00 0.00 0.00 0.00 0.00 0.00 0.00 0.00 0.00 0.00 0.00 0.00 0.00 0.00 0.00 0.00 0.00 0.00 0.00 0.00 0.00 0.00 0.00 0.00 0.00 0.00 0.00 0.00 0.00 0.00 0.00 0.00 0.00 0.00 0.01 0.01 0.02 0.03 0.03 0.05 0.06
0.00 0.00 0.00 0.00 0.00 0.00 0.00 0.00 0.00 0.00 0.00 0.00 0.00 0.00 0.00 0.00 0.00 0.00 0.00 0.00 0.00 0.00 0.00 0.00 0.00 0.00 0.00 0.00 0.00 0.00 0.00 0.00 0.00 0.00 0.00 0.00 0.00 0.01 0.01 0.02 0.02 0.03 0.04 0.04
MSLP
1027.77 1027.58 1027.40 1027.27 1027.20 1027.21 1027.32 1027.51 1027.78 1028.15 1028.60 1029.15 1029.78 1030.49 1031.27 1032.08 1032.91 1033.70 1034.42 1035.03 1035.50 1035.82 1035.99 1036.02 1035.93 1035.74 1035.48 1035.15 1034.77 1034.33 1033.83 1033.27 1032.64 1031.95 1031.22 1030.46 1029.71 1028.99 1028.30 1027.65 1027.04 1026.44 1025.83 1025.18
1028.24 1027.99 1027.72 1027.49 1027.31 1027.22 1027.24 1027.38 1027.65 1028.04 1028.56 1029.20 1029.95 1030.79 1031.68 1032.60 1033.49 1034.32 1035.05 1035.64 1036.07 1036.34 1036.44 1036.40 1036.24 1035.99 1035.66 1035.27 1034.83 1034.35 1033.81 1033.21 1032.56 1031.86 1031.12 1030.36 1029.62 1028.89 1028.21 1027.56 1026.93 1026.32 1025.69 1025.02
1028.65 1028.35 1028.02 1027.70 1027.44 1027.27 1027.23 1027.33 1027.59 1028.02 1028.61 1029.35 1030.20 1031.15 1032.15 1033.14 1034.10 1034.96 1035.68 1036.25 1036.63 1036.83 1036.86 1036.75 1036.51 1036.18 1035.78 1035.32 1034.83 1034.29 1033.72 1033.10 1032.44 1031.74 1031.01 1030.28 1029.55 1028.84 1028.16 1027.50 1026.86 1026.22 1025.56 1024.85
1028.92 1028.60 1028.23 1027.86 1027.55 1027.35 1027.28 1027.39 1027.67 1028.15 1028.81 1029.62 1030.57 1031.60 1032.67 1033.72 1034.70 1035.56 1036.27 1036.80 1037.13 1037.26 1037.22 1037.03 1036.72 1036.31 1035.84 1035.32 1034.76 1034.18 1033.57 1032.94 1032.28 1031.60 1030.90 1030.20 1029.50 1028.82 1028.14 1027.48 1026.82 1026.15 1025.44 1024.69
1028.96 1028.64 1028.28 1027.93 1027.63 1027.45 1027.41 1027.56 1027.91 1028.45 1029.18 1030.06 1031.07 1032.15 1033.24 1034.30 1035.28 1036.11 1036.78 1037.26 1037.53 1037.60 1037.50 1037.24 1036.86 1036.39 1035.85 1035.27 1034.66 1034.04 1033.40 1032.76 1032.11 1031.45 1030.79 1030.13 1029.47 1028.81 1028.15 1027.48 1026.80 1026.10 1025.35 1024.56
1028.73 1028.45 1028.14 1027.85 1027.64 1027.54 1027.60 1027.85 1028.28 1028.91 1029.71 1030.65 1031.69 1032.77 1033.86 1034.89 1035.81 1036.59 1037.20 1037.61 1037.82 1037.84 1037.68 1037.37 1036.94 1036.41 1035.83 1035.20 1034.55 1033.90 1033.24 1032.60 1031.96 1031.33 1030.70 1030.08 1029.46 1028.83 1028.18 1027.52 1026.83 1026.10 1025.32 1024.51
1028.24 1028.02 1027.81 1027.65 1027.57 1027.62 1027.83 1028.22 1028.78 1029.51 1030.38 1031.36 1032.40 1033.47 1034.50 1035.46 1036.30 1037.00 1037.52 1037.86 1038.01 1037.97 1037.77 1037.43 1036.97 1036.42 1035.80 1035.14 1034.47 1033.79 1033.12 1032.48 1031.85 1031.24 1030.65 1030.07 1029.48 1028.88 1028.26 1027.60 1026.91 1026.17 1025.39 1024.58
1027.55 1027.43 1027.34 1027.33 1027.44 1027.69 1028.09 1028.65 1029.36 1030.20 1031.14 1032.15 1033.18 1034.19 1035.14 1036.00 1036.73 1037.32 1037.75 1038.01 1038.10 1038.03 1037.80 1037.45 1036.98 1036.42 1035.79 1035.12 1034.43 1033.75 1033.07 1032.43 1031.81 1031.22 1030.66 1030.11 1029.56 1028.99 1028.39 1027.76 1027.07 1026.34 1025.57 1024.77
1026.80 1026.77 1026.82 1026.99 1027.30 1027.76 1028.37 1029.12 1029.99 1030.94 1031.95 1032.97 1033.97 1034.90 1035.75 1036.49 1037.11 1037.58 1037.91 1038.10 1038.13 1038.03 1037.80 1037.44 1036.98 1036.43 1035.81 1035.15 1034.46 1033.77 1033.10 1032.46 1031.85 1031.29 1030.75 1030.22 1029.70 1029.17 1028.60 1027.98 1027.32 1026.61 1025.87 1025.11
1026.08 1026.15 1026.34 1026.69 1027.20 1027.88 1028.69 1029.63 1030.64 1031.70 1032.76 1033.78 1034.72 1035.58 1036.32 1036.93 1037.42 1037.79 1038.02 1038.14 1038.13 1038.01 1037.78 1037.44 1037.00 1036.47 1035.88 1035.23 1034.56 1033.87 1033.21 1032.57 1031.97 1031.42 1030.90 1030.40 1029.91 1029.40 1028.86 1028.27 1027.64 1026.97 1026.26 1025.55
1025.52 1025.67 1026.00 1026.51 1027.20 1028.07 1029.06 1030.15 1031.29 1032.42 1033.51 1034.52 1035.42 1036.18 1036.81 1037.32 1037.69 1037.95 1038.11 1038.16 1038.12 1037.99 1037.76 1037.44 1037.03 1036.53 1035.97 1035.34 1034.68 1034.01 1033.36 1032.73 1032.14 1031.60 1031.09 1030.62 1030.15 1029.66 1029.15 1028.59 1028.00 1027.36 1026.70 1026.03
1025.16 1025.39 1025.83 1026.48 1027.33 1028.34 1029.48 1030.68 1031.90 1033.09 1034.19 1035.17 1036.01 1036.69 1037.23 1037.63 1037.91 1038.08 1038.17 1038.18 1038.11 1037.97 1037.75 1037.45 1037.07 1036.60 1036.06 1035.45 1034.81 1034.16 1033.51 1032.89 1032.31 1031.78 1031.29 1030.83 1030.38 1029.91 1029.43 1028.90 1028.33 1027.73 1027.10 1026.48
1024.98 1025.30 1025.85 1026.62 1027.58 1028.70 1029.93 1031.20 1032.47 1033.67 1034.76 1035.71 1036.49 1037.10 1037.56 1037.88 1038.08 1038.20 1038.23 1038.20 1038.11 1037.96 1037.75 1037.46 1037.09 1036.64 1036.12 1035.53 1034.91 1034.26 1033.63 1033.02 1032.45 1031.93 1031.44 1031.00 1030.56 1030.11 1029.64 1029.13 1028.59 1028.01 1027.41 1026.83
1024.95 1025.36 1026.00 1026.86 1027.91 1029.11 1030.39 1031.69 1032.96 1034.15 1035.21 1036.12 1036.84 1037.40 1037.80 1038.06 1038.22 1038.28 1038.28 1038.22 1038.12 1037.96 1037.74 1037.45 1037.08 1036.64 1036.13 1035.56 1034.94 1034.31 1033.68 1033.08 1032.52 1032.00 1031.53 1031.08 1030.65 1030.21 1029.75 1029.25 1028.72 1028.16 1027.58 1027.01
1024.97 1025.49 1026.23 1027.17 1028.28 1029.52 1030.81 1032.11 1033.37 1034.52 1035.54 1036.40 1037.08 1037.59 1037.95 1038.18 1038.30 1038.34 1038.31 1038.23 1038.11 1037.93 1037.70 1037.40 1037.03 1036.59 1036.08 1035.51 1034.90 1034.28 1033.67 1033.07 1032.52 1032.01 1031.53 1031.08 1030.65 1030.21 1029.74 1029.24 1028.71 1028.16 1027.58 1027.03
1024.99 1025.62 1026.46 1027.48 1028.63 1029.88 1031.17 1032.44 1033.66 1034.77 1035.74 1036.55 1037.19 1037.68 1038.01 1038.22 1038.33 1038.35 1038.31 1038.22 1038.07 1037.88 1037.63 1037.31 1036.93 1036.48 1035.97 1035.41 1034.81 1034.20 1033.59 1033.01 1032.46 1031.95 1031.47 1031.02 1030.57 1030.11 1029.64 1029.12 1028.58 1028.01 1027.43 1026.87
1024.97 1025.73 1026.67 1027.75 1028.93 1030.18 1031.44 1032.67 1033.83 1034.89 1035.81 1036.58 1037.19 1037.65 1037.98 1038.19 1038.29 1038.31 1038.26 1038.16 1038.00 1037.78 1037.51 1037.18 1036.79 1036.33 1035.83 1035.27 1034.69 1034.10 1033.51 1032.93 1032.39 1031.88 1031.39 1030.92 1030.45 1029.97 1029.46 1028.92 1028.35 1027.76 1027.16 1026.57
1024.91 1025.80 1026.83 1027.96 1029.17 1030.40 1031.62 1032.79 1033.89 1034.88 1035.75 1036.49 1037.08 1037.53 1037.86 1038.07 1038.18 1038.21 1038.16 1038.04 1037.87 1037.64 1037.36 1037.01 1036.61 1036.17 1035.67 1035.14 1034.58 1034.01 1033.44 1032.89 1032.36 1031.84 1031.34 1030.85 1030.34 1029.82 1029.28 1028.69 1028.08 1027.45 1026.81 1026.19
1024.87 1025.87 1026.98 1028.14 1029.34 1030.54 1031.70 1032.81 1033.84 1034.77 1035.59 1036.30 1036.87 1037.32 1037.65 1037.87 1038.00 1038.03 1037.98 1037.87 1037.69 1037.45 1037.16 1036.81 1036.43 1036.00 1035.53 1035.03 1034.51 1033.98 1033.45 1032.93 1032.41 1031.89 1031.37 1030.85 1030.31 1029.74 1029.13 1028.50 1027.83 1027.14 1026.45 1025.77
1024.90 1025.99 1027.14 1028.32 1029.49 1030.63 1031.72 1032.76 1033.71 1034.58 1035.35 1036.02 1036.58 1037.02 1037.36 1037.60 1037.73 1037.78 1037.74 1037.62 1037.44 1037.21 1036.93 1036.60 1036.24 1035.84 1035.42 1034.97 1034.51 1034.04 1033.55 1033.06 1032.56 1032.04 1031.51 1030.95 1030.37 1029.74 1029.08 1028.38 1027.65 1026.89 1026.13 1025.38
1025.04 1026.18 1027.35 1028.50 1029.61 1030.68 1031.69 1032.63 1033.51 1034.31 1035.03 1035.67 1036.21 1036.66 1037.01 1037.26 1037.41 1037.46 1037.43 1037.33 1037.16 1036.93 1036.67 1036.37 1036.05 1035.70 1035.34 1034.96 1034.57 1034.16 1033.73 1033.28 1032.81 1032.30 1031.76 1031.17 1030.54 1029.86 1029.14 1028.37 1027.56 1026.73 1025.89 1025.05
1025.29 1026.45 1027.59 1028.68 1029.72 1030.69 1031.60 1032.45 1033.25 1033.99 1034.66 1035.27 1035.80 1036.24 1036.60 1036.86 1037.02 1037.09 1037.08 1036.98 1036.83 1036.63 1036.40 1036.14 1035.87 1035.58 1035.29 1034.99 1034.68 1034.34 1033.98 1033.57 1033.13 1032.64 1032.09 1031.48 1030.81 1030.09 1029.30 1028.47 1027.59 1026.68 1025.76 1024.83
1025.60 1026.74 1027.82 1028.83 1029.77 1030.64 1031.45 1032.21 1032.93 1033.60 1034.24 1034.82 1035.34 1035.79 1036.15 1036.42 1036.60 1036.68 1036.68 1036.60 1036.47 1036.30 1036.11 1035.90 1035.68 1035.47 1035.26 1035.04 1034.80 1034.54 1034.24 1033.89 1033.48 1033.01 1032.46 1031.84 1031.15 1030.39 1029.56 1028.67 1027.74 1026.76 1025.76 1024.74
1025.88 1026.96 1027.96 1028.87 1029.71 1030.47 1031.19 1031.87 1032.52 1033.15 1033.75 1034.32 1034.84 1035.29 1035.66 1035.95 1036.14 1036.24 1036.26 1036.20 1036.10 1035.96 1035.81 1035.65 1035.49 1035.35 1035.21 1035.06 1034.90 1034.71 1034.48 1034.18 1033.81 1033.36 1032.83 1032.21 1031.51 1030.73 1029.87 1028.95 1027.97 1026.95 1025.89 1024.80
1026.02 1027.02 1027.93 1028.74 1029.47 1030.14 1030.78 1031.40 1032.01 1032.61 1033.20 1033.76 1034.29 1034.75 1035.14 1035.44 1035.66 1035.78 1035.82 1035.79 1035.71 1035.61 1035.49 1035.38 1035.29 1035.20 1035.13 1035.05 1034.96 1034.83 1034.65 1034.40 1034.07 1033.66 1033.15 1032.54 1031.84 1031.06 1030.20 1029.27 1028.27 1027.22 1026.12 1024.99
1025.91 1026.82 1027.63 1028.35 1029.00 1029.60 1030.19 1030.77 1031.36 1031.96 1032.55 1033.13 1033.68 1034.16 1034.57 1034.90 1035.14 1035.28 1035.35 1035.34 1035.30 1035.24 1035.17 1035.10 1035.06 1035.03 1035.01 1034.99 1034.96 1034.88 1034.74 1034.54 1034.24 1033.86 1033.37 1032.79 1032.11 1031.35 1030.50 1029.58 1028.60 1027.55 1026.44 1025.29
1025.48 1026.30 1027.02 1027.67 1028.26 1028.83 1029.39 1029.97 1030.57 1031.18 1031.80 1032.41 1032.98 1033.50 1033.94 1034.30 1034.56 1034.74 1034.83 1034.87 1034.86 1034.84 1034.81 1034.79 1034.80 1034.82 1034.85 1034.88 1034.88 1034.84 1034.75 1034.57 1034.31 1033.95 1033.49 1032.93 1032.28 1031.55 1030.74 1029.85 1028.90 1027.88 1026.80 1025.66
Thickness
5618 5612 5601 5593 5587 5582 5570 5562 5550 5548 5534 5516 5492 5478 5459 5437 5415 5393 5372 5354 5336 5319 5306 5295 5284 5273 5263 5253 5243 5234 5225 5217 5210 5204 5199 5193 5187 5181 5175 5168 5163 5158 5156 5155
5612 5607 5595 5587 5584 5577 5568 5559 5550 5540 5526 5503 5491 5473 5451 5426 5404 5382 5362 5344 5327 5312 5300 5288 5278 5268 5258 5248 5238 5229 5221 5215 5209 5202 5195 5188 5180 5173 5165 5156 5148 5141 5136 5134
5596 5604 5596 5589 5590 5574 5567 5559 5548 5531 5515 5499 5481 5463 5440 5414 5392 5371 5353 5335 5319 5305 5293 5282 5272 5263 5253 5244 5235 5227 5220 5213 5206 5198 5191 5183 5174 5165 5154 5144 5134 5124 5117 5113
5583 5588 5581 5594 5578 5577 5567 5558 5545 5529 5511 5493 5473 5450 5422 5400 5380 5362 5345 5328 5313 5300 5288 5278 5269 5259 5249 5240 5233 5226 5219 5211 5203 5195 5187 5178 5168 5157 5145 5133 5120 5109 5102 5098
5571 5573 5587 5578 5571 5564 5552 5545 5539 5521 5505 5485 5466 5443 5407 5392 5375 5357 5339 5324 5309 5296 5286 5275 5265 5256 5247 5239 5233 5226 5218 5209 5201 5192 5183 5173 5162 5150 5138 5124 5111 5100 5092 5088
5570 5560 5568 5583 5567 5560 5545 5531 5526 5511 5494 5475 5455 5425 5406 5384 5370 5351 5335 5320 5306 5294 5283 5272 5262 5253 5245 5239 5233 5224 5215 5206 5198 5189 5180 5169 5158 5145 5132 5117 5104 5094 5086 5082
5566 5562 5576 5569 5558 5547 5528 5531 5515 5502 5484 5465 5443 5419 5398 5382 5364 5347 5331 5316 5303 5290 5279 5269 5260 5252 5244 5237 5230 5221 5213 5205 5197 5188 5178 5168 5155 5142 5129 5115 5102 5091 5083 5080
5572 5562 5569 5559 5546 5535 5533 5521 5510 5492 5474 5454 5435 5414 5395 5375 5358 5341 5325 5311 5298 5286 5276 5266 5258 5251 5243 5236 5228 5220 5212 5205 5197 5188 5178 5168 5155 5142 5130 5116 5103 5092 5084 5081
5587 5582 5575 5563 5554 5544 5531 5516 5500 5481 5464 5446 5427 5407 5387 5370 5353 5337 5321 5306 5294 5282 5272 5264 5257 5250 5243 5236 5229 5220 5213 5205 5197 5189 5178 5168 5157 5145 5132 5119 5106 5096 5087 5083
5587 5584 5569 5560 5547 5537 5526 5508 5491 5473 5455 5438 5418 5398 5381 5363 5347 5331 5316 5302 5290 5279 5270 5263 5257 5250 5243 5236 5228 5220 5213 5206 5199 5190 5180 5169 5159 5148 5136 5124 5112 5101 5093 5088
5586 5579 5564 5555 5542 5529 5514 5498 5481 5464 5447 5429 5410 5392 5376 5358 5341 5325 5312 5299 5288 5277 5269 5263 5257 5251 5244 5236 5229 5221 5214 5208 5200 5191 5181 5171 5160 5149 5140 5128 5119 5110 5101 5095
5590 5585 5563 5551 5539 5523 5505 5489 5473 5455 5438 5422 5404 5386 5370 5352 5335 5321 5308 5296 5286 5277 5271 5264 5257 5250 5244 5237 5229 5223 5217 5211 5202 5194 5184 5175 5164 5154 5144 5136 5128 5120 5113 5107
5590 5580 5567 5551 5534 5517 5499 5483 5466 5450 5432 5414 5398 5381 5364 5347 5332 5319 5306 5296 5286 5278 5271 5265 5258 5250 5244 5237 5231 5224 5218 5212 5205 5197 5188 5180 5171 5161 5152 5144 5136 5128 5122 5116
5578 5565 5549 5538 5522 5509 5492 5475 5459 5442 5425 5408 5391 5375 5359 5344 5330 5318 5306 5296 5288 5280 5273 5265 5257 5251 5244 5238 5233 5227 5221 5216 5209 5200 5192 5184 5176 5167 5159 5152 5144 5136 5130 5124
5570 5561 5543 5531 5516 5499 5482 5466 5448 5431 5416 5401 5386 5369 5355 5341 5328 5316 5306 5298 5290 5281 5273 5264 5258 5251 5246 5241 5235 5230 5225 5220 5213 5206 5198 5191 5183 5175 5167 5159 5152 5145 5139 5133
5563 5550 5537 5524 5507 5489 5474 5459 5443 5426 5412 5397 5380 5365 5352 5339 5327 5316 5308 5299 5289 5279 5272 5265 5259 5253 5248 5243 5238 5233 5228 5223 5218 5211 5204 5198 5191 5183 5176 5168 5161 5155 5149 5142
5554 5542 5530 5517 5501 5485 5473 5460 5444 5427 5410 5393 5378 5363 5350 5338 5329 5320 5308 5298 5288 5281 5274 5267 5261 5256 5251 5246 5241 5236 5231 5226 5222 5215 5209 5203 5198 5191 5184 5178 5171 5165 5159 5153
5562 5550 5538 5523 5505 5487 5472 5457 5442 5425 5409 5392 5376 5361 5349 5339 5330 5317 5306 5297 5289 5283 5277 5269 5263 5259 5254 5249 5245 5240 5234 5229 5224 5219 5214 5209 5205 5199 5193 5187 5181 5176 5170 5164
5556 5544 5532 5517 5501 5485 5469 5453 5438 5421 5406 5390 5375 5361 5350 5339 5327 5315 5305 5296 5289 5283 5276 5269 5266 5261 5256 5252 5248 5243 5237 5232 5227 5223 5218 5215 5210 5205 5200 5196 5191 5186 5180 5175
5550 5538 5524 5509 5494 5479 5463 5447 5432 5417 5402 5388 5374 5361 5348 5337 5325 5314 5304 5296 5290 5283 5277 5272 5268 5262 5258 5255 5251 5245 5239 5234 5230 5226 5222 5218 5213 5209 5205 5202 5198 5194 5190 5185
5542 5528 5514 5499 5485 5472 5459 5444 5430 5415 5400 5387 5373 5360 5347 5336 5324 5314 5305 5298 5293 5286 5279 5275 5269 5264 5260 5257 5252 5246 5241 5236 5231 5227 5223 5219 5216 5212 5209 5206 5203 5201 5198 5194
5534 5521 5506 5492 5479 5466 5453 5440 5426 5412 5398 5384 5371 5358 5345 5334 5324 5315 5307 5299 5293 5287 5281 5275 5269 5265 5262 5258 5252 5247 5242 5237 5232 5228 5224 5221 5217 5214 5211 5209 5207 5205 5203 5201
5530 5516 5502 5489 5476 5461 5447 5434 5422 5409 5396 5384 5371 5358 5346 5336 5327 5317 5310 5302 5294 5287 5282 5275 5270 5266 5263 5257 5252 5247 5242 5238 5233 5229 5225 5221 5218 5215 5212 5210 5209 5207 5206 5205
5526 5512 5498 5483 5469 5454 5440 5428 5417 5405 5393 5382 5370 5359 5348 5337 5327 5318 5310 5302 5295 5288 5282 5276 5271 5267 5262 5256 5251 5247 5242 5238 5234 5230 5226 5222 5219 5216 5214 5212 5211 5210 5210 5209
5521 5506 5492 5477 5464 5453 5439 5425 5412 5399 5388 5378 5367 5357 5347 5338 5328 5319 5310 5302 5295 5288 5282 5276 5271 5266 5260 5255 5250 5246 5242 5238 5235 5231 5226 5223 5220 5217 5216 5214 5213 5212 5212 5211
5514 5502 5489 5478 5467 5454 5439 5424 5412 5401 5390 5379 5368 5357 5347 5337 5328 5318 5310 5302 5295 5289 5282 5276 5270 5265 5259 5254 5250 5246 5242 5238 5233 5229 5226 5223 5220 5218 5216 5215 5215 5214 5214 5213
5505 5493 5480 5470 5460 5451 5439 5427 5416 5405 5394 5383 5372 5360 5349 5338 5328 5319 5311 5303 5295 5289 5282 5276 5270 5264 5259 5254 5249 5245 5241 5237 5233 5229 5226 5222 5220 5218 5216 5216 5215 5215 5215 5214